Missoula, MT

9:29 AM MST on December 11, 2017 (GMT -0700)
Missoula International

Weather History for KMSO - October, 2012

Change the Weather History Date:

Friday, October 26, 2012

  Actual Average Record
Temperature  
Mean Temperature 32 °F 41 °F  
Max Temperature 36 °F 53 °F 69 °F (1907)
Min Temperature 28 °F 30 °F 15 °F (2002)
Degree Days  
Heating Degree Days 33 24  
Month to date heating degree days 510 493  
Since 1 July heating degree days 679 818  
Cooling Degree Days 0 0  
Month to date cooling degree days 0 0  
Year to date cooling degree days 415 332  
Moisture  
Dew Point 29 °F    
Average Humidity 88    
Maximum Humidity 100    
Minimum Humidity 75    
Precipitation  
Precipitation T in 0.03 in 0.57 in (1999)
Month to date precipitation 1.23 0.73  
Year to date precipitation 11.74 11.93  
Snow  
Snow T in - - ()
Month to date snowfall 2.5  
Year to date snowfall 31.7  
Since 1 July snowfall 2.5  
Snow Depth 1.00 in    
Sea Level Pressure  
Sea Level Pressure 30.35 in    
Wind  
Wind Speed 2 mph (SSW)    
Max Wind Speed 9 mph    
Max Gust Speed 13 mph    
Visibility 7 miles    
Events Fog    
T = Trace of Precipitation, MM = Missing Value Source: NWS Daily Summary

Daily Weather History Graph

Daily Weather History Graph

Search for Another Location

Airport or City:

Trip Planner

Search our weather history database for the weather conditions in past years. The results will help you decide how hot, cold, wet, or windy it might be!

Date:

Astronomy

Oct. 26, 2012 Rise Set
Actual Time 8:10 AM MDT 6:28 PM MDT
Civil Twilight 7:39 AM MDT 7:00 PM MDT
Nautical Twilight 7:03 AM MDT 7:35 PM MDT
Astronomical Twilight 6:28 AM MDT 8:10 PM MDT
Moon 4:54 PM MDT (10/26) 5:01 AM MDT (10/26)
Length of Visible Light 11h 20m
Length of Day
10h 17m
Waxing Gibbous, 91% of the Moon is Illuminated
Oct 26
Waxing Gibbous
Oct 29
Full
Nov 6
Last Quarter
Nov 13
New
Nov 20
First Quarter

Hourly Weather History & Observations

Time (MDT) Temp. Windchill Dew Point Humidity Pressure Visibility Wind Dir Wind Speed Gust Speed Precip Events Conditions
12:05 AM 30.2 °F - 30.2 °F 100% 30.41 in 1.0 mi Calm Calm - N/A   Overcast
12:09 AM 30.2 °F - 30.2 °F 100% 30.41 in 1.5 mi Calm Calm - N/A   Overcast
12:12 AM 30.2 °F - 30.2 °F 100% 30.40 in 3.0 mi Calm Calm - N/A   Overcast
12:39 AM 30.2 °F - 30.2 °F 100% 30.40 in 1.5 mi Calm Calm - N/A   Overcast
12:41 AM 30.2 °F 26.7 °F 30.2 °F 100% 30.40 in 1.0 mi SSE 3.5 mph - N/A   Overcast
12:50 AM 28.4 °F 23.3 °F 28.4 °F 100% 30.39 in 0.8 mi South 4.6 mph - N/A   Mostly Cloudy
12:53 AM 28.9 °F 22.8 °F 28.0 °F 96% 30.48 in 0.8 mi SSE 5.8 mph - N/A   Mostly Cloudy
12:59 AM 30.2 °F 26.7 °F 28.4 °F 93% 30.39 in 1.2 mi SE 3.5 mph - N/A   Scattered Clouds
1:06 AM 30.2 °F - 28.4 °F 93% 30.39 in 0.8 mi Calm Calm - N/A   Partly Cloudy
1:12 AM 28.4 °F - 28.4 °F 100% 30.39 in 0.5 mi Calm Calm - N/A Fog Light Freezing Fog
1:21 AM 28.4 °F - 28.4 °F 100% 30.40 in 1.8 mi Calm Calm - N/A   Mostly Cloudy
1:23 AM 28.4 °F - 28.4 °F 100% 30.40 in 3.0 mi Calm Calm - N/A   Mostly Cloudy
1:53 AM 28.9 °F - 28.0 °F 96% 30.48 in 9.0 mi Calm Calm - N/A   Mostly Cloudy
2:53 AM 30.0 °F - 28.0 °F 92% 30.47 in 10.0 mi Calm Calm - N/A   Overcast
3:53 AM 32.0 °F - 30.0 °F 92% 30.46 in 10.0 mi Calm Calm - N/A   Overcast
4:53 AM 32.0 °F 28.7 °F 30.0 °F 92% 30.46 in 10.0 mi West 3.5 mph - N/A   Overcast
5:53 AM 30.9 °F 27.5 °F 30.0 °F 96% 30.45 in 10.0 mi West 3.5 mph - N/A   Overcast
6:53 AM 30.9 °F - 28.9 °F 92% 30.46 in 10.0 mi Calm Calm - N/A   Overcast
7:53 AM 30.9 °F - 28.9 °F 92% 30.45 in 10.0 mi Calm Calm - N/A   Overcast
8:53 AM 30.9 °F 27.5 °F 28.9 °F 92% 30.43 in 9.0 mi SSE 3.5 mph - N/A   Overcast
9:14 AM 30.2 °F 24.3 °F 28.4 °F 93% 30.34 in 10.0 mi ESE 5.8 mph - N/A   Scattered Clouds
9:22 AM 30.2 °F 23.4 °F 28.4 °F 93% 30.33 in 10.0 mi ESE 6.9 mph - N/A   Mostly Cloudy
9:53 AM 30.9 °F - 28.9 °F 92% 30.43 in 7.0 mi Calm Calm - N/A   Mostly Cloudy
10:08 AM 30.2 °F 25.4 °F 28.4 °F 93% 30.33 in 8.0 mi ESE 4.6 mph - N/A   Mostly Cloudy
10:53 AM 32.0 °F 26.4 °F 28.0 °F 85% 30.40 in 10.0 mi ESE 5.8 mph - N/A   Clear
11:53 AM 33.1 °F 28.7 °F 28.0 °F 82% 30.38 in 10.0 mi SE 4.6 mph - N/A   Scattered Clouds
12:53 PM 33.1 °F 30.0 °F 30.0 °F 89% 30.35 in 9.0 mi NW 3.5 mph - N/A   Mostly Cloudy
1:53 PM 34.0 °F 29.8 °F 28.9 °F 82% 30.32 in 10.0 mi WNW 4.6 mph - N/A   Overcast
2:53 PM 35.1 °F 31.0 °F 28.9 °F 78% 30.28 in 10.0 mi West 4.6 mph - N/A   Clear
3:53 PM 35.1 °F 31.0 °F 28.9 °F 78% 30.27 in 10.0 mi WNW 4.6 mph - N/A   Overcast
4:53 PM 36.0 °F 32.1 °F 28.9 °F 76% 30.25 in 10.0 mi West 4.6 mph - N/A   Overcast
5:53 PM 36.0 °F - 28.9 °F 76% 30.22 in 10.0 mi Calm Calm - N/A   Mostly Cloudy
6:53 PM 34.0 °F 29.8 °F 30.0 °F 85% 30.23 in 10.0 mi NW 4.6 mph - N/A   Overcast
7:53 PM 35.1 °F - 30.9 °F 85% 30.22 in 10.0 mi Calm Calm - N/A   Overcast
8:53 PM 35.1 °F - 30.0 °F 82% 30.22 in 10.0 mi Calm Calm - N/A   Overcast
9:53 PM 34.0 °F - 30.0 °F 85% 30.21 in 10.0 mi Calm Calm - N/A   Overcast
10:53 PM 35.1 °F - 30.0 °F 82% 30.19 in 10.0 mi Calm Calm - N/A   Overcast
11:53 PM 34.0 °F - 30.9 °F 89% 30.17 in 10.0 mi Calm Calm - N/A   Overcast